Theta_e
313 313 314 314 314 314 314 314 314 314 314 314 314 315 315 315 315 315 315 314 312 311 310 308 307 307 307 307 306 306 306 306 306 306 305 305 305 305 304 304 304 304 304 304 304 304 304 304 304 304 304 304 304 303 303 303 303 303 303 304 304 305 305 305 306 305 304 305 308 310 311 309 308 310
312 314 315 316 315 314 314 313 314 314 314 314 315 315 315 316 315 316 316 316 313 311 309 308 307 307 306 307 307 307 308 309 308 307 307 308 309 307 306 305 306 305 305 304 304 304 304 304 304 304 304 304 304 304 304 304 303 303 303 303 303 303 303 303 303 304 304 304 304 305 307 307 307 307
311 313 315 315 313 312 312 313 315 316 315 315 315 315 316 316 316 316 316 316 315 312 309 308 307 308 308 307 308 309 310 310 309 309 309 309 310 309 308 308 308 308 308 307 306 306 305 305 305 305 304 305 304 304 304 304 304 304 304 304 303 303 303 303 303 303 303 304 304 305 305 306 307 307
311 313 314 314 313 313 314 315 316 316 316 316 316 316 316 316 317 317 316 316 314 312 310 309 308 309 309 308 308 308 309 309 309 309 308 308 309 309 309 308 309 309 309 309 309 308 307 307 307 307 306 306 306 306 305 305 305 305 304 304 304 304 303 303 303 303 303 303 303 304 305 306 309 310
314 315 314 313 314 316 316 315 315 315 315 316 316 316 316 316 316 316 317 316 313 312 311 309 309 310 310 308 307 308 309 309 309 307 307 308 308 307 307 307 307 308 309 309 309 309 308 308 308 308 308 307 307 307 307 307 306 306 306 305 305 304 304 304 303 303 303 303 303 303 303 304 306 309
315 315 315 314 314 315 315 315 315 315 315 316 316 316 316 315 316 316 316 315 315 313 312 310 310 310 310 309 308 308 309 309 309 308 308 308 307 307 307 308 307 307 308 308 307 307 307 308 308 307 307 307 307 307 307 307 307 307 307 307 306 306 305 305 304 304 303 303 303 302 303 303 304 305
314 314 314 313 311 312 314 315 314 314 315 316 316 316 315 315 315 315 315 315 315 314 313 311 310 310 311 310 309 308 308 309 309 309 309 309 308 308 308 308 308 307 307 307 307 307 306 306 306 307 307 307 307 307 307 307 307 307 307 307 307 307 306 306 305 305 304 303 303 303 302 302 302 303
313 313 314 312 310 311 313 314 314 314 314 316 316 316 315 315 315 314 315 314 314 314 313 313 311 311 311 311 309 309 309 309 309 310 310 310 310 309 309 309 309 308 307 306 305 306 306 305 305 305 306 306 306 306 306 306 306 306 306 306 306 306 307 307 306 305 304 303 303 303 302 302 302 302
314 314 315 313 311 312 313 313 313 314 314 315 316 316 315 315 315 315 315 315 314 314 314 313 313 312 312 311 311 311 310 310 311 311 310 310 310 310 310 310 309 308 307 305 304 303 303 304 304 304 304 304 304 305 305 305 305 305 305 305 305 305 305 306 306 305 305 304 303 303 303 303 302 302
314 314 316 316 313 314 315 315 315 315 314 315 316 316 315 315 315 315 315 314 314 314 314 313 313 313 312 311 311 311 310 310 311 311 311 310 310 310 310 309 309 308 307 306 305 303 302 302 302 302 302 303 303 303 303 303 304 304 304 304 304 304 304 304 304 305 305 304 304 303 302 302 302 302
315 314 316 317 315 314 316 316 316 315 315 316 316 315 315 315 315 316 315 314 315 314 314 313 313 313 312 312 312 311 310 310 310 310 310 310 310 309 309 308 307 307 307 307 306 305 303 302 302 302 302 302 302 302 302 303 303 303 303 303 304 303 303 303 303 303 304 304 304 303 302 302 302 302
317 316 316 317 316 316 316 316 316 316 316 316 315 315 315 315 314 315 315 315 315 314 313 313 312 312 312 312 312 311 310 310 310 310 310 309 309 309 307 307 306 306 306 306 306 305 304 303 303 302 302 302 302 302 302 302 302 302 303 302 303 303 303 303 303 303 303 303 302 302 302 302 301 301
319 319 318 318 318 318 316 316 316 317 316 316 315 316 315 315 314 315 315 315 315 314 313 312 312 312 311 311 311 311 310 310 309 309 309 309 308 307 306 306 306 306 305 306 305 304 304 303 302 301 302 303 303 302 301 301 301 301 301 301 301 301 301 301 302 302 302 302 301 301 301 301 300 300
319 320 320 320 319 318 317 317 317 316 316 316 316 316 315 315 315 315 315 315 315 314 313 312 311 311 311 311 311 311 310 309 308 308 308 308 307 306 306 306 306 305 305 305 304 303 302 302 301 301 302 303 303 302 302 302 301 299 299 299 299 299 299 299 300 300 301 301 300 300 300 300 300 300
320 319 319 319 319 318 318 317 318 317 316 315 315 315 315 316 316 315 314 314 314 314 313 313 312 311 310 311 310 310 309 309 308 308 307 306 306 306 306 306 305 304 304 304 303 302 301 301 300 301 301 302 302 303 303 302 300 299 298 298 298 298 298 298 299 299 299 300 300 300 299 299 299 299
320 320 318 317 317 316 316 317 318 318 316 316 316 316 316 317 316 316 315 314 314 313 313 313 312 312 311 310 310 309 309 309 308 308 306 305 305 305 305 305 304 303 303 302 301 300 300 300 301 301 301 301 302 302 301 301 300 299 299 298 297 298 298 298 298 298 299 299 299 299 299 299 299 299
319 319 317 316 315 315 315 317 318 318 317 317 316 317 317 317 317 317 316 315 314 313 312 312 311 311 310 310 309 309 309 308 307 306 305 304 304 304 303 302 302 301 301 300 300 301 301 301 302 302 301 301 301 301 301 301 300 300 299 298 298 298 298 298 298 298 298 298 298 299 299 299 299 299
316 316 315 315 315 314 314 316 318 317 316 317 317 317 318 317 317 317 316 314 314 314 312 310 309 309 309 309 308 308 308 307 305 304 303 303 303 302 301 300 300 301 301 301 302 303 303 303 303 302 302 301 301 301 301 301 300 299 298 298 298 298 298 298 298 298 298 298 298 298 298 298 298 298
315 314 314 314 314 314 314 315 316 315 313 314 315 316 316 317 316 315 315 314 313 312 310 309 308 308 309 308 308 307 306 305 304 303 302 302 301 300 300 300 301 301 301 301 302 302 302 302 302 302 302 301 301 301 301 301 300 299 299 299 299 298 298 298 298 298 298 298 298 297 297 297 298 298
314 313 313 313 314 315 315 313 312 311 310 311 313 315 315 316 315 315 314 312 311 309 308 308 308 308 308 307 306 306 305 303 303 302 301 300 299 299 300 300 300 301 301 301 301 301 301 301 301 301 301 301 300 300 300 300 300 300 300 299 299 298 298 298 298 298 297 297 297 297 297 297 297 297
314 314 311 312 315 316 313 309 308 309 310 312 313 314 314 314 314 314 312 310 308 307 307 307 307 307 307 306 305 304 303 302 301 299 298 298 297 298 299 299 300 300 300 300 300 301 301 301 301 301 300 300 300 300 300 300 300 300 300 299 299 298 298 298 298 298 297 297 297 297 297 297 297 296
313 311 307 309 313 312 309 307 308 310 313 313 313 313 312 311 311 310 308 307 307 307 307 307 307 306 305 303 302 302 301 300 299 299 298 296 296 297 298 299 300 300 300 300 300 300 300 300 300 299 299 299 299 299 299 300 300 300 299 299 299 299 298 298 298 297 297 297 297 296 296 296 296 297
310 307 307 309 310 308 306 307 308 309 311 311 311 311 310 309 309 308 307 306 306 306 306 306 304 303 302 301 300 300 300 300 299 298 297 296 296 298 299 299 299 299 299 300 300 299 299 299 298 298 298 298 299 299 299 299 299 299 299 299 299 298 298 298 298 297 297 297 297 296 296 296 297 297
309 308 310 311 309 306 306 307 307 307 307 309 311 310 309 308 308 308 307 306 306 305 304 303 302 301 300 300 301 300 300 300 299 298 298 297 297 298 298 298 298 298 299 299 298 298 298 298 298 297 297 298 298 298 298 298 298 298 298 298 298 298 298 298 297 297 297 297 297 296 296 296 297 297
309 309 309 308 306 305 306 306 306 306 306 307 308 308 307 307 307 307 307 306 306 304 302 301 301 301 301 300 300 300 300 299 299 299 298 298 298 298 297 297 297 298 298 298 297 297 297 297 297 296 296 296 297 297 297 297 297 297 297 297 297 297 297 297 297 297 297 297 296 296 296 296 296 297
309 307 306 305 305 305 305 305 305 306 306 306 306 306 306 307 306 307 306 304 303 301 301 301 301 300 300 300 300 300 300 299 299 299 298 297 297 297 296 296 296 296 297 296 296 296 296 296 296 295 295 295 295 295 296 295 296 296 296 296 297 297 297 296 296 296 296 296 296 296 295 295 296 296
308 305 304 305 305 305 305 305 305 306 306 306 306 306 306 306 305 305 303 301 300 300 300 300 300 300 300 300 300 299 299 299 298 298 297 296 296 296 295 295 295 295 295 295 295 295 295 295 294 294 294 294 294 294 295 295 295 295 295 296 296 296 296 296 296 296 296 295 295 295 295 295 295 296
307 305 305 305 305 305 305 305 305 305 306 305 305 304 304 303 303 302 301 300 300 300 300 300 299 300 299 299 299 298 298 297 297 296 295 295 295 295 295 294 294 294 294 294 294 294 294 294 294 294 293 294 294 294 294 294 294 295 295 295 295 295 295 295 295 295 295 295 295 295 295 295 295 296
306 306 306 305 305 305 305 305 305 304 304 304 303 303 302 301 301 300 300 300 300 299 299 299 299 299 298 298 298 297 297 296 296 296 295 295 295 295 294 294 294 294 294 294 294 294 294 294 294 294 294 294 294 294 294 294 294 294 294 294 295 295 295 295 295 295 294 294 294 294 294 294 294 295
306 307 306 305 305 305 304 304 304 303 303 303 302 301 300 300 300 299 299 299 299 299 298 298 298 297 297 297 297 297 296 296 296 296 295 295 295 294 294 294 294 294 294 294 294 294 294 294 294 294 294 294 294 294 294 294 294 294 294 294 294 295 295 294 295 294 294 294 294 294 293 294 294 294
307 307 307 306 305 304 304 303 303 303 303 301 300 299 299 299 299 298 298 297 296 297 297 297 297 297 296 296 296 296 296 296 296 295 295 295 294 294 294 294 294 294 294 294 294 294 294 294 294 294 294 294 294 294 293 293 293 294 294 294 294 294 294 294 294 294 294 294 293 293 293 293 294 294
308 308 307 305 304 304 303 303 302 301 301 300 299 299 299 298 298 297 296 295 295 296 297 296 295 295 295 296 296 296 296 295 295 295 294 294 294 294 293 293 293 293 293 293 294 294 294 294 294 294 294 294 293 293 293 293 293 293 294 294 294 294 294 294 294 294 294 293 293 293 294 294 294 294
308 308 306 304 303 303 302 301 300 300 299 298 298 298 298 298 298 297 296 296 296 296 295 293 293 294 295 295 295 295 295 295 294 294 293 293 293 293 293 293 293 293 293 293 293 293 293 294 294 294 294 293 293 293 293 293 293 294 294 294 294 294 294 294 294 293 293 293 293 293 293 294 294 294
308 307 304 303 302 302 301 300 299 299 299 298 298 298 297 297 297 296 295 295 295 294 293 293 293 294 294 295 295 295 294 294 293 293 293 293 293 293 293 293 293 293 293 293 293 293 293 293 293 294 294 293 293 293 293 293 293 294 294 294 294 294 294 293 293 293 293 293 293 293 293 293 294 294
306 305 303 302 301 300 300 299 299 299 298 298 297 297 296 296 296 295 294 294 294 292 292 293 293 294 294 294 294 294 293 293 293 293 293 292 292 292 292 292 292 292 292 292 292 293 293 293 293 293 293 293 293 294 294 294 294 294 294 294 294 294 293 293 293 292 292 292 292 293 293 293 293 293
304 303 302 301 300 299 299 299 298 298 298 297 297 297 296 296 295 295 294 294 293 292 292 293 293 294 294 294 294 293 293 293 293 293 292 292 292 292 292 292 292 292 292 292 292 293 293 293 293 293 293 293 293 293 294 294 294 294 294 294 293 293 293 292 292 292 292 292 292 292 292 292 293 293
302 301 300 300 299 299 299 298 298 298 297 297 296 296 296 296 296 295 295 294 293 292 292 292 293 294 294 294 294 293 293 293 292 292 292 292 292 292 291 291 291 291 292 292 292 292 292 293 293 293 293 293 292 292 293 294 293 293 293 293 293 292 292 292 292 291 291 291 291 291 292 292 293 293
301 300 300 300 299 299 299 298 297 297 297 296 296 296 296 296 296 295 293 293 292 292 292 293 294 294 294 293 293 293 293 292 292 292 292 292 291 291 291 291 291 291 292 292 292 292 292 292 293 293 293 293 293 293 293 293 293 293 293 292 292 292 292 291 291 291 291 291 291 291 292 292 293 293
300 300 300 300 300 299 299 298 297 297 297 296 295 296 296 295 295 294 292 292 292 291 291 293 294 293 293 293 293 293 292 292 292 292 292 292 291 291 291 291 291 291 292 292 293 293 292 292 292 292 292 292 293 293 293 292 293 293 293 293 292 292 292 292 291 291 291 291 292 292 292 292 293 293
300 300 300 300 300 299 298 297 297 297 296 296 296 296 295 294 294 293 292 291 291 291 292 293 293 293 293 293 293 293 292 292 292 292 292 291 291 291 291 291 291 291 291 292 292 292 292 292 292 292 292 292 292 292 292 292 293 293 293 293 293 293 292 292 292 292 292 292 292 292 292 293 293 293
300 300 300 300 299 299 298 297 297 296 296 296 296 295 294 294 293 292 291 291 291 291 292 293 293 293 293 293 293 293 292 292 292 292 292 291 291 290 290 291 291 291 291 291 292 292 293 293 293 293 292 292 292 292 293 293 293 293 293 293 293 293 292 292 292 292 292 293 293 293 293 293 293 293
300 300 299 299 299 298 298 297 297 296 296 296 295 294 293 293 292 292 292 292 292 292 293 293 293 293 293 293 293 292 292 292 292 292 291 291 290 290 291 291 291 291 291 292 292 293 293 293 293 293 292 292 292 292 293 293 293 293 293 293 293 293 293 293 292 292 292 293 293 293 293 293 293 293
299 299 299 298 298 298 297 297 296 296 295 295 294 293 293 292 292 291 292 293 293 293 292 292 293 293 292 292 292 292 292 292 291 291 291 290 290 290 291 291 291 292 292 292 292 293 293 293 293 292 292 292 292 292 293 293 293 293 293 293 293 293 292 292 292 292 292 292 293 293 293 293 293 293
299 299 298 298 297 297 297 296 296 295 294 294 293 293 292 291 291 291 292 293 293 292 291 291 292 291 291 291 291 292 291 291 291 291 291 291 290 291 291 291 291 292 292 292 292 292 293 293 292 292 293 293 293 293 294 294 293 293 293 293 293 292 292 292 291 291 292 292 293 293 293 293 293 293
298 298 297 296 296 296 296 295 295 294 294 293 292 292 291 291 291 291 292 293 292 291 290 291 290 290 290 291 291 291 291 291 291 291 291 291 291 291 291 291 291 292 292 292 292 292 292 292 292 293 293 293 293 294 294 294 294 293 293 293 293 292 292 291 291 291 291 292 293 293 293 293 293 293
Wind_Speed
8 9 8 8 7 8 8 8 8 8 8 7 6 5 4 5 6 6 5 5 4 3 3 4 4 3 4 6 7 6 5 8 9 8 9 10 10 11 10 10 10 10 10 10 10 11 11 11 11 12 12 12 12 13 13 13 13 13 13 13 14 15 15 15 16 16 15 15 16 18 18 16 17 17
10 10 9 9 9 10 10 11 11 10 9 7 5 4 2 1 2 5 7 7 5 3 3 4 4 3 3 4 5 6 6 9 9 7 9 11 12 11 10 10 11 11 11 11 11 11 11 11 11 11 12 12 12 13 13 14 14 14 14 14 14 15 15 16 16 17 17 17 16 16 16 16 17 18
12 12 11 11 12 13 12 12 12 10 9 7 5 5 3 3 4 3 6 8 6 4 3 3 3 2 2 2 3 6 8 9 9 8 10 12 13 12 11 11 12 13 14 14 13 13 13 12 12 12 12 12 12 13 13 13 14 14 14 14 15 15 15 16 16 17 18 18 18 17 17 17 18 19
12 12 13 13 13 12 10 10 10 9 9 8 6 6 5 5 6 5 4 7 7 5 3 3 1 1 2 2 3 6 8 10 11 9 9 13 15 14 15 16 15 15 16 16 16 16 15 15 15 14 14 14 14 14 14 14 14 15 15 15 15 15 16 16 16 17 17 18 18 18 18 18 18 19
10 9 10 12 11 9 7 7 7 7 7 7 6 5 5 5 5 4 4 6 6 3 3 3 1 2 3 1 2 4 7 10 12 9 11 16 15 11 14 18 18 18 17 18 19 19 18 18 18 17 17 16 16 16 16 16 16 16 16 16 16 16 16 16 16 17 17 18 18 18 19 19 19 20
9 8 8 9 9 8 8 6 5 5 4 4 5 5 4 4 4 3 3 3 3 2 2 2 2 2 4 0 4 7 9 11 12 7 8 12 10 8 12 15 18 21 20 19 20 20 21 21 21 21 20 19 19 18 18 18 18 18 18 18 18 18 18 17 17 17 18 18 18 19 19 19 19 20
9 9 7 7 8 9 9 6 5 5 3 2 4 4 3 4 3 3 3 2 2 3 1 1 2 2 5 4 3 6 10 14 14 7 5 8 7 9 12 12 15 22 24 23 21 20 21 21 21 22 22 22 22 22 21 21 21 20 20 19 19 19 19 19 19 19 19 19 19 19 19 19 20 20
8 8 7 7 8 9 9 7 5 5 4 2 3 3 3 3 3 3 3 2 2 1 1 1 1 2 5 5 4 5 8 11 12 8 7 9 9 10 12 13 14 21 27 29 25 22 22 22 21 21 22 23 24 24 25 24 24 24 23 22 22 21 21 21 21 21 21 20 20 20 20 20 20 20
9 8 7 7 8 8 8 7 5 6 6 4 3 2 2 3 3 2 2 1 0 1 2 3 5 5 4 5 6 8 8 9 9 9 8 9 10 12 13 14 15 19 27 31 30 27 26 26 25 24 23 23 24 24 25 25 26 26 25 25 24 24 23 23 22 22 22 22 22 22 21 21 21 21
10 10 8 8 9 9 9 8 8 8 9 7 5 5 4 3 2 2 1 1 1 2 3 4 5 6 6 7 8 8 9 10 10 9 10 10 12 14 14 15 16 17 21 27 31 31 29 28 29 29 27 25 24 25 24 24 25 26 27 27 26 26 26 25 25 24 24 23 23 23 23 23 22 22
10 11 10 10 10 10 10 11 11 10 10 10 9 9 8 4 3 4 3 2 3 3 4 4 5 5 6 8 9 7 8 10 10 10 12 14 16 16 15 16 17 16 17 21 25 26 25 27 29 30 30 28 27 27 26 25 26 26 26 26 26 27 27 27 27 27 26 26 25 25 25 24 24 24
10 11 11 11 10 11 12 12 12 10 11 11 10 9 7 6 5 5 4 4 4 4 5 6 6 6 6 8 9 8 9 11 11 12 14 16 18 18 18 18 17 16 16 17 20 22 23 26 29 29 30 29 28 29 29 28 28 26 25 25 26 27 28 28 29 29 28 28 27 27 26 26 26 25
11 11 12 12 12 13 13 13 13 13 12 11 10 8 8 9 9 7 6 6 5 6 7 7 8 9 8 8 9 9 10 12 13 13 14 16 19 19 20 19 15 15 16 17 21 24 26 29 30 29 26 24 25 29 30 30 30 28 26 26 27 28 29 29 30 30 30 30 29 29 28 27 27 27
15 15 14 13 14 15 13 11 12 13 13 13 13 13 13 13 12 10 8 7 7 8 8 8 8 9 9 10 10 9 11 13 13 13 14 17 20 20 19 18 17 16 16 18 24 30 32 33 31 26 21 20 23 26 25 27 31 31 29 28 28 29 30 31 31 31 31 31 31 30 30 29 28 28
18 19 17 14 14 15 15 14 14 14 14 14 15 16 16 15 13 13 11 9 8 8 9 8 8 9 10 11 10 11 12 12 12 14 18 20 19 18 17 19 20 19 17 21 29 35 34 32 28 24 22 21 21 21 22 26 30 31 31 29 28 28 29 30 31 32 32 32 32 32 31 31 30 29
17 17 16 14 13 14 17 18 17 17 17 16 16 17 17 17 16 16 15 11 9 8 7 7 8 9 10 9 9 12 15 15 18 22 24 19 15 16 18 19 22 23 24 28 33 35 32 28 24 23 23 21 20 21 24 27 30 32 32 32 31 30 29 29 30 31 31 32 32 33 33 32 32 32
16 15 14 13 12 13 17 17 14 16 18 17 16 16 16 17 18 18 16 14 13 13 12 9 7 9 12 10 10 16 21 22 24 26 23 18 17 20 21 23 27 29 29 28 28 28 27 25 21 20 22 22 22 22 24 27 30 32 34 34 33 31 29 28 29 29 30 30 31 32 32 33 33 33
19 18 16 14 12 12 15 14 12 14 15 14 14 14 14 16 17 17 17 16 16 16 16 13 10 12 16 16 17 22 25 25 26 25 23 22 24 26 27 29 30 28 24 22 22 23 23 20 20 20 21 22 23 22 23 25 29 32 34 34 33 32 31 30 29 28 28 28 29 30 31 32 32 33
20 20 17 14 11 12 15 14 13 13 13 11 11 12 13 15 16 17 18 17 16 16 16 15 15 17 20 21 21 24 24 25 25 24 24 25 27 27 27 26 24 21 18 17 19 22 21 19 21 22 21 22 24 23 23 25 28 30 30 30 31 32 32 31 30 29 28 27 27 28 30 31 32 32
20 18 14 12 10 12 15 14 13 13 12 11 11 12 13 15 17 17 16 15 15 16 16 16 18 20 21 21 23 24 24 23 23 23 24 25 23 22 21 20 19 18 17 15 17 21 22 21 21 22 22 22 24 24 24 25 25 25 25 28 30 31 30 29 29 29 30 30 30 30 29 30 30 30
20 18 15 11 11 15 17 14 12 12 11 11 12 12 13 15 16 15 14 14 15 15 17 18 19 21 22 23 23 23 22 21 21 22 23 22 20 18 18 19 19 18 17 17 17 20 21 19 20 22 23 23 24 25 24 22 22 23 25 28 29 28 27 27 28 30 31 32 33 30 26 25 26 27
20 18 15 15 16 18 18 14 12 12 11 10 11 11 12 13 13 13 13 14 16 17 18 19 21 22 22 22 21 21 21 21 21 22 22 22 21 19 18 18 18 18 17 16 15 16 18 18 19 22 24 24 23 21 20 19 19 22 24 26 26 26 26 27 28 29 29 30 32 30 25 23 23 23
17 16 17 19 19 17 15 13 12 12 12 11 11 11 10 9 8 12 14 14 14 16 18 20 21 21 21 21 21 22 22 21 20 20 21 21 18 16 16 17 18 19 17 14 14 17 19 20 21 21 24 26 24 20 19 20 20 20 21 22 23 24 24 26 27 28 27 27 31 32 27 22 21 22
16 16 18 19 17 14 13 13 12 13 14 14 13 12 11 10 10 14 17 16 15 16 17 19 19 19 19 19 19 18 18 18 18 18 19 17 14 14 17 18 18 19 18 16 18 21 21 21 23 22 22 25 26 23 21 21 21 21 21 21 22 21 22 23 25 25 24 25 29 31 26 20 19 19
15 17 17 17 15 14 13 13 13 14 15 15 14 13 13 14 15 16 17 18 18 17 16 15 14 13 12 13 12 11 12 14 15 15 15 14 14 16 18 19 20 22 21 19 20 23 22 21 22 22 21 22 25 25 24 23 22 21 20 20 20 20 20 20 21 21 21 22 24 25 23 22 21 18
14 16 16 15 15 14 14 14 14 14 15 15 14 12 12 15 18 17 17 16 15 12 10 9 10 10 10 10 10 10 10 11 11 12 13 14 15 17 18 19 21 23 22 21 21 22 22 20 20 21 22 22 23 24 24 24 22 20 19 18 18 19 19 19 20 20 20 21 21 22 22 22 20 17
14 15 15 15 15 14 13 13 13 13 14 14 13 13 14 15 17 17 16 13 10 8 8 10 11 10 10 9 9 10 10 10 12 14 16 16 15 14 15 16 17 19 19 19 18 17 19 19 18 19 20 21 22 23 23 22 21 20 19 18 18 18 18 19 19 20 20 20 20 20 21 20 17 15
15 13 13 14 14 13 12 12 12 12 12 13 13 14 14 14 14 12 10 9 8 8 9 9 9 8 9 9 9 10 11 13 15 16 16 14 12 12 13 14 15 16 16 17 16 15 16 16 17 17 18 19 20 21 22 22 21 21 20 20 19 18 18 18 19 19 19 19 19 19 19 19 17 16
14 11 12 13 12 12 12 12 12 12 12 12 12 12 12 12 11 9 7 6 7 7 7 8 8 8 9 9 10 12 14 14 15 16 15 14 13 14 14 15 16 16 16 17 16 15 15 16 16 17 17 18 18 19 20 22 22 21 20 20 20 19 18 18 18 18 18 19 19 19 19 19 19 18
11 10 13 13 12 12 13 12 12 12 12 11 11 11 11 9 7 5 6 6 6 6 6 7 8 8 9 10 11 13 13 12 13 15 15 15 14 14 14 15 16 16 15 16 16 15 15 16 16 17 17 18 18 18 19 20 22 22 21 21 20 19 18 16 16 16 17 18 18 19 19 19 19 18
13 13 13 12 12 12 12 11 11 11 11 11 11 10 8 7 6 7 9 8 7 6 6 7 8 9 10 11 11 11 11 11 12 13 13 14 14 14 15 16 17 16 15 15 15 14 15 16 16 16 16 17 18 18 17 18 21 22 21 20 19 19 18 17 16 16 16 16 17 18 18 19 18 17
15 14 12 12 13 12 11 12 11 11 11 10 8 6 5 6 7 8 7 6 5 4 5 6 8 10 10 10 10 10 11 12 12 12 13 14 14 14 15 16 17 16 16 15 15 14 15 16 16 15 15 15 17 17 17 19 20 20 20 19 19 19 17 16 16 16 16 16 17 17 17 17 18 17
15 14 13 14 14 13 13 12 10 9 9 7 6 7 7 6 5 5 3 3 3 4 7 9 10 10 10 9 10 11 12 12 13 13 13 13 14 14 15 16 16 16 16 17 16 16 16 16 16 16 16 16 17 17 18 20 21 19 18 18 19 18 16 15 16 16 16 16 18 19 19 18 17 16
14 14 14 14 13 13 13 11 9 9 9 7 7 8 6 6 7 6 4 3 5 7 9 10 10 9 9 9 11 12 12 12 13 12 12 13 13 14 15 16 16 16 16 18 18 17 17 17 17 16 15 16 17 16 16 18 20 20 19 19 19 17 16 17 17 16 16 17 18 20 21 20 18 16
15 15 15 15 15 13 12 10 11 10 9 8 8 7 4 5 6 5 3 4 7 8 8 8 9 9 9 10 11 12 13 13 13 13 13 13 13 14 15 16 17 17 17 18 18 18 18 18 17 16 16 17 19 18 16 15 17 18 19 20 19 18 18 18 17 16 16 17 19 20 20 20 19 17
17 17 16 15 15 13 12 11 12 11 9 9 9 6 4 4 3 2 4 7 8 7 7 8 8 8 9 11 12 13 13 13 13 13 13 12 13 14 15 15 17 17 17 18 18 18 18 17 16 15 16 18 19 20 20 17 15 16 19 19 19 20 21 20 19 18 18 18 18 18 19 20 19 17
17 16 15 14 14 14 13 12 12 11 10 9 8 6 5 4 3 3 5 7 6 6 8 9 8 7 10 12 12 12 12 12 13 12 12 13 13 14 15 15 17 17 17 17 18 18 18 17 15 13 15 16 17 20 22 20 16 15 18 20 23 24 24 24 23 22 20 18 17 17 17 18 18 17
16 16 15 14 14 13 12 12 11 10 9 8 7 6 5 3 2 3 4 5 4 6 9 9 7 8 10 11 11 12 12 11 12 12 12 13 13 13 15 16 17 17 17 18 19 18 17 16 16 15 15 16 17 19 22 23 23 22 22 23 25 25 22 21 21 20 18 17 16 15 15 16 18 18
17 17 15 14 13 12 12 12 10 9 9 8 6 5 4 3 3 3 3 3 6 9 9 6 6 9 11 11 11 12 11 12 12 13 13 13 13 14 16 18 18 20 20 20 20 20 18 17 16 16 16 17 20 21 23 27 30 28 22 18 18 17 17 17 18 19 19 19 18 17 16 16 17 18
17 17 15 14 12 11 10 9 8 8 8 8 7 6 5 3 2 3 3 4 6 9 8 5 6 10 11 11 11 12 12 12 12 13 13 13 14 16 18 19 20 20 21 21 22 22 21 19 18 17 17 19 21 22 23 26 26 21 15 13 13 14 15 17 18 20 21 20 19 18 18 17 17 16
17 16 14 12 11 9 8 8 8 9 9 7 6 6 4 3 3 4 5 5 7 9 8 6 7 10 10 11 11 11 12 12 12 13 13 14 15 16 16 18 20 21 21 23 24 22 20 19 18 16 16 16 17 18 18 18 17 14 13 13 14 14 15 16 18 19 20 19 18 17 16 16 16 15
17 14 11 11 10 9 9 9 9 9 8 7 5 4 3 2 3 4 4 6 8 9 9 8 8 9 10 11 11 11 12 13 12 13 14 15 15 16 16 18 20 22 22 23 22 21 19 18 18 17 15 15 16 17 16 14 13 13 12 12 13 15 17 18 17 17 17 16 15 13 13 14 15 14
15 12 10 11 11 11 10 10 8 7 7 6 4 3 2 2 2 2 2 3 5 6 7 7 8 9 10 11 11 11 11 11 11 13 15 17 17 17 18 19 20 21 22 22 22 21 19 19 20 18 16 14 14 15 14 12 12 13 13 11 12 14 17 18 17 16 14 13 12 11 11 12 13 14
14 13 12 12 12 11 11 9 7 7 7 5 3 2 2 2 1 1 1 2 3 6 8 9 9 12 14 13 10 9 9 10 11 13 16 17 17 17 18 19 21 22 23 23 22 21 21 21 20 17 14 12 11 11 12 12 12 13 12 11 11 13 14 15 15 14 13 12 10 9 9 10 11 12
14 14 13 13 12 12 12 10 8 7 6 5 3 3 2 2 2 1 2 2 5 7 9 10 12 15 16 12 9 9 10 10 11 13 14 15 16 17 18 20 21 22 22 22 22 22 21 21 19 15 12 10 8 9 11 12 12 12 11 10 11 12 12 12 12 12 11 10 9 8 8 8 8 8
Wind_Direction
117 106 97 97 97 97 99 101 106 103 103 119 124 123 143 136 133 154 148 122 118 112 90 69 62 41 26 37 47 53 28 10 23 21 5 7 9 6 5 4 3 1 358 355 352 349 345 341 338 334 331 327 322 318 314 311 305 301 296 290 284 279 277 275 273 272 269 267 269 269 270 275 277 273
116 111 105 105 110 111 110 106 104 98 96 107 107 108 136 82 120 167 151 123 120 117 100 88 81 72 50 43 46 50 31 16 20 13 359 3 3 359 0 1 359 357 356 353 351 350 346 344 341 338 335 332 328 324 320 317 314 311 307 302 298 293 289 286 282 280 276 272 271 267 264 267 271 272
131 127 119 118 123 121 116 110 101 93 92 97 95 96 100 54 57 110 137 129 124 121 128 127 112 103 82 49 9 8 14 12 6 4 6 1 353 348 350 354 355 353 350 348 347 345 343 342 339 336 334 331 329 326 323 321 318 316 313 309 306 301 298 295 291 289 285 281 278 274 268 264 264 265
132 128 122 123 121 114 113 111 106 109 107 101 97 95 94 84 74 78 113 127 129 135 142 132 113 53 35 39 7 351 354 359 1 2 357 352 354 354 347 345 348 348 346 342 341 340 338 337 335 333 330 327 325 323 320 319 317 316 315 312 310 307 303 300 296 293 290 287 284 280 276 270 265 262
122 118 123 127 118 106 112 113 107 115 111 102 101 95 91 95 88 88 110 121 128 144 144 134 154 350 32 75 288 327 341 353 359 351 335 345 358 358 341 334 332 337 342 339 337 336 334 333 331 329 327 325 323 320 318 316 314 313 312 311 310 308 306 303 300 296 292 289 286 283 279 275 270 266
129 124 130 134 130 127 127 118 116 124 116 112 114 98 93 97 88 92 115 130 140 142 131 157 209 342 32 23 285 321 334 347 360 348 317 334 341 325 330 332 323 324 332 334 334 334 331 329 327 326 325 323 321 319 317 315 313 312 311 310 309 308 306 304 301 299 295 291 288 284 281 278 274 270
147 144 149 160 162 155 142 132 140 142 125 114 120 104 92 100 99 105 111 108 129 144 154 205 212 293 347 346 317 321 322 336 353 355 310 321 323 306 319 327 314 314 322 326 327 326 323 321 320 319 318 317 317 317 316 315 313 312 310 309 308 306 305 304 302 299 297 294 291 288 284 280 276 271
164 161 163 176 177 166 156 153 157 156 144 125 126 120 103 109 113 110 105 87 83 154 233 307 291 308 335 343 343 330 323 330 340 341 323 326 329 311 308 314 311 311 316 320 322 320 316 313 312 312 312 312 312 312 312 313 312 312 311 309 308 305 303 302 300 299 297 295 292 290 287 283 279 274
173 171 170 183 183 177 172 165 160 166 165 158 161 175 162 139 127 108 92 93 83 275 272 287 306 321 322 320 326 324 324 327 324 318 315 319 325 320 310 312 313 312 313 316 320 322 321 319 316 314 314 312 310 308 309 310 310 310 309 309 307 305 303 300 298 296 295 295 293 291 288 285 282 277
183 181 179 189 192 187 179 174 179 185 178 170 181 206 204 166 152 182 200 175 233 293 298 281 292 308 303 309 325 320 315 326 327 318 314 313 318 320 312 308 310 311 309 309 314 322 326 324 322 319 317 315 311 309 308 308 307 306 307 308 307 305 303 300 298 296 294 293 292 291 289 286 283 280
202 199 194 200 205 200 193 196 204 206 204 202 195 194 193 187 210 224 225 249 260 278 295 291 292 297 293 305 321 323 313 316 317 316 318 316 317 319 313 309 311 313 307 302 307 316 321 322 323 321 320 320 317 313 313 312 308 305 306 306 304 303 302 301 299 297 295 293 291 289 288 286 284 281
211 210 208 212 214 211 211 218 225 225 226 222 204 194 196 200 212 220 227 249 261 267 279 287 287 284 284 293 304 316 318 313 310 312 315 314 316 318 315 312 313 313 309 302 300 306 312 317 321 320 319 319 317 314 316 315 311 309 310 307 304 301 300 299 299 298 296 295 292 290 287 285 284 281
217 217 219 221 219 222 228 232 238 241 236 221 202 201 213 214 217 225 234 248 260 271 280 286 284 285 292 299 304 311 310 306 305 307 310 311 312 313 312 311 312 311 311 304 298 302 308 313 317 318 317 314 311 312 315 314 313 315 315 311 309 306 303 301 299 297 296 294 292 290 288 285 283 281
225 224 225 225 222 227 238 244 246 248 240 223 208 208 220 230 236 239 243 252 262 267 274 281 287 291 292 295 305 307 301 302 302 301 306 309 310 311 310 308 307 310 311 305 300 303 309 313 316 315 310 303 303 307 308 306 309 314 314 312 310 307 304 301 299 297 295 294 292 290 288 286 284 282
231 232 231 230 228 233 244 251 251 250 243 231 221 222 236 249 253 249 247 247 252 265 274 277 282 285 282 286 294 291 288 291 284 285 300 308 307 306 305 303 304 308 308 302 301 305 309 312 312 310 307 304 301 300 297 296 302 307 309 310 309 305 302 300 297 296 295 293 292 291 289 288 285 283
234 241 243 242 246 251 249 247 247 247 244 241 237 239 250 258 257 254 249 238 232 242 255 269 282 282 279 283 284 273 272 274 277 286 298 303 299 296 298 298 300 302 302 301 302 304 307 309 309 308 309 306 299 297 297 298 300 302 305 308 309 306 303 299 297 295 294 293 292 291 290 289 287 285
235 245 253 253 256 254 245 242 245 244 240 241 244 247 252 256 255 254 249 239 236 236 237 252 274 270 263 265 271 272 276 283 288 293 297 294 290 292 294 294 296 300 304 307 305 304 307 311 307 302 302 302 299 298 299 298 298 301 305 308 308 308 306 303 300 297 294 292 290 290 289 288 287 285
245 256 267 263 250 241 240 239 239 239 236 236 242 246 247 249 251 251 245 238 239 242 245 252 257 257 262 269 276 280 285 291 295 296 295 293 293 296 297 299 303 308 315 315 306 297 300 306 301 297 299 300 300 299 297 295 296 300 303 305 307 310 311 308 305 301 297 294 290 286 285 284 284 284
253 260 264 255 237 232 240 234 222 227 235 235 238 240 240 244 245 243 239 237 241 246 250 255 260 266 273 279 282 285 290 293 293 294 294 296 300 303 304 305 308 311 311 306 295 289 293 298 296 296 299 300 299 298 295 293 295 299 301 304 307 311 313 312 310 308 305 301 296 291 286 282 281 282
251 245 236 229 220 221 231 227 215 222 233 235 238 239 236 238 240 239 239 240 243 248 254 263 270 274 279 282 284 287 290 291 292 294 296 300 305 305 301 298 299 300 298 295 290 290 293 296 295 296 299 300 299 297 296 299 302 301 299 301 307 312 316 318 318 315 314 313 310 304 296 288 283 280
240 223 206 204 208 214 225 228 220 221 227 229 234 232 224 229 236 237 236 239 245 253 261 269 275 279 282 285 286 289 291 292 294 296 298 301 302 297 294 294 296 296 296 295 294 291 292 295 297 298 300 300 299 299 300 303 303 299 297 304 311 316 320 321 319 318 320 321 318 313 307 300 295 288
226 212 196 198 209 216 222 223 214 212 210 206 209 205 202 217 234 239 238 242 249 258 266 272 277 280 282 284 286 288 291 293 296 298 299 301 300 297 295 295 296 297 297 298 300 297 296 299 301 301 302 301 300 301 302 299 298 298 303 309 314 315 316 315 314 315 317 319 318 315 311 310 310 306
213 206 199 207 217 217 214 211 208 207 198 185 186 191 194 205 231 249 254 256 259 266 273 278 281 283 286 290 294 296 297 299 299 301 304 308 308 303 298 297 300 300 298 300 303 299 297 299 301 302 302 301 300 299 299 299 299 300 302 304 305 306 307 308 310 312 314 315 313 310 308 312 316 316
210 208 202 207 211 210 209 208 207 204 193 180 180 189 198 207 221 236 247 256 267 274 278 281 287 294 298 302 305 305 307 310 311 310 315 317 310 300 298 299 297 293 293 297 299 297 296 296 296 297 297 296 297 299 299 299 299 299 300 301 301 302 304 305 307 308 309 308 306 306 307 308 308 309
197 202 200 201 204 206 208 207 205 204 196 192 198 202 205 213 221 230 244 258 270 278 283 286 291 298 300 299 298 295 298 306 307 307 311 308 296 292 294 295 292 289 289 285 279 281 288 291 293 295 294 291 293 296 298 298 298 300 302 303 303 304 304 303 303 302 302 301 301 303 303 296 291 295
184 200 202 204 207 207 208 207 205 205 205 210 223 227 222 224 230 238 251 263 271 279 285 285 284 286 286 284 282 280 282 287 286 284 284 283 282 282 281 279 279 281 282 279 273 275 283 288 291 293 292 291 292 294 297 298 299 301 303 303 303 304 303 302 302 302 302 302 302 301 298 294 291 290
188 204 202 204 208 206 208 210 206 210 215 221 230 235 236 239 241 246 255 264 269 272 273 274 277 280 280 279 281 284 285 281 277 277 276 276 279 281 278 276 275 277 280 284 285 285 286 286 286 287 288 290 292 293 295 296 298 302 303 303 302 301 302 303 303 303 303 302 303 303 302 304 304 298
201 205 197 203 209 206 208 213 214 219 224 228 236 242 244 247 249 253 262 269 271 273 277 280 280 278 280 287 287 281 279 280 283 287 286 284 287 291 289 288 287 286 287 290 291 289 286 283 283 284 285 287 288 290 292 294 297 301 302 302 301 302 303 304 303 303 304 304 304 305 306 307 307 302
210 204 198 204 207 205 209 215 219 224 229 235 243 246 246 248 254 259 260 260 266 273 277 278 277 279 287 291 285 283 290 297 300 302 302 299 297 296 293 291 289 288 290 292 291 288 285 282 282 284 284 283 283 285 288 292 295 297 299 300 302 303 303 304 304 305 305 305 305 304 303 303 302 299
208 198 201 205 204 206 212 217 222 228 236 242 244 245 249 254 255 252 247 249 258 268 273 277 281 286 292 291 289 296 308 312 305 302 303 301 299 298 296 296 293 291 291 291 289 287 285 283 283 283 283 282 282 283 286 289 291 292 295 298 300 302 303 305 306 305 305 306 306 303 301 302 302 300
207 202 203 205 207 211 216 220 224 229 236 242 246 251 253 244 232 237 248 255 258 258 268 282 287 289 294 298 299 303 307 304 301 303 305 302 301 300 299 296 295 295 295 294 292 290 288 286 285 283 281 281 282 283 284 285 287 290 293 296 297 299 302 304 304 302 303 304 304 304 305 305 305 304
210 206 205 205 207 211 214 217 223 231 235 238 240 236 228 234 249 262 273 288 291 267 267 286 294 298 303 305 305 306 307 306 307 308 306 302 301 301 300 298 297 298 299 299 297 295 292 290 287 283 280 278 279 281 283 283 285 288 292 295 297 297 299 302 302 300 300 300 301 303 304 304 306 307
211 206 206 208 208 209 212 215 218 221 220 216 215 215 212 222 249 266 278 301 290 266 277 296 306 308 309 308 307 309 309 308 307 306 304 304 303 302 301 299 298 299 300 300 301 300 298 296 290 284 280 276 275 277 279 283 288 291 291 293 296 296 297 301 302 301 301 301 300 300 300 301 305 307
216 212 211 210 210 210 210 206 195 194 197 197 211 228 223 204 218 237 243 246 264 278 296 312 315 311 311 310 310 310 308 306 307 307 305 305 304 303 302 301 299 300 301 300 301 302 302 301 298 292 284 279 279 279 275 278 287 293 292 291 293 294 296 300 303 303 302 301 300 301 301 302 304 305
216 218 215 212 209 205 200 192 186 190 195 193 199 218 224 208 225 251 255 256 278 299 314 319 316 315 317 314 310 309 308 307 308 308 306 306 306 304 303 301 300 300 301 301 302 304 304 303 301 296 290 288 291 294 293 288 288 292 293 290 288 290 295 300 302 302 300 301 301 301 302 301 302 304
216 215 212 208 202 193 188 188 187 188 192 192 193 200 204 207 225 257 263 276 298 317 321 320 322 320 317 312 309 307 307 306 307 308 309 309 309 306 303 303 302 302 303 303 303 304 304 303 301 297 294 296 297 300 305 307 300 293 292 290 289 292 296 299 300 299 300 300 299 298 300 303 304 303
210 206 200 197 193 188 187 188 188 189 191 191 190 189 191 202 223 246 271 295 315 319 313 321 329 318 311 312 309 307 308 309 308 310 311 311 310 308 306 306 305 304 303 304 304 306 304 302 299 295 293 295 295 297 304 310 305 293 291 295 299 302 300 299 300 301 300 300 299 298 299 301 301 300
197 196 193 190 189 188 186 187 188 188 186 185 185 186 186 191 213 248 285 304 304 302 310 322 324 314 313 315 311 309 311 311 311 314 314 313 311 309 307 307 308 309 310 311 313 315 310 304 303 302 298 295 293 295 300 303 301 298 300 303 305 307 306 305 306 306 303 305 308 306 300 296 296 300
190 192 189 187 188 186 183 186 186 182 181 182 180 179 179 188 213 252 290 293 298 313 326 331 321 318 319 315 312 313 313 313 315 316 313 310 308 306 306 309 313 318 320 322 326 328 323 315 313 311 302 292 288 288 290 292 296 303 309 309 306 308 311 312 311 308 307 310 312 307 299 295 300 308
189 190 186 185 186 184 182 183 182 181 182 181 176 177 178 180 216 248 261 274 302 329 353 355 325 323 323 317 315 317 315 314 315 313 312 311 309 307 310 316 322 325 325 325 327 329 327 324 321 313 300 292 290 289 289 292 299 311 323 321 312 311 312 311 309 308 309 310 309 305 302 304 311 319
187 184 182 181 182 184 184 180 181 183 178 172 182 194 193 191 220 246 268 291 318 347 10 1 328 324 325 321 320 319 316 316 317 315 313 313 310 310 316 322 326 327 325 321 323 328 329 330 329 319 308 304 304 304 304 306 312 322 327 323 318 312 309 308 309 308 310 310 309 305 304 307 313 321
182 175 177 179 180 185 185 180 183 183 169 161 176 190 184 206 244 275 310 326 336 351 359 346 328 327 329 327 325 322 318 317 316 315 317 322 324 325 327 328 328 328 326 324 327 332 334 336 337 330 321 317 315 314 317 321 322 322 322 321 315 308 306 310 314 315 315 314 312 308 306 308 311 314
172 171 179 182 180 183 182 178 180 178 163 159 176 180 166 194 254 296 328 332 330 334 336 333 329 329 328 323 320 319 318 317 317 319 327 333 333 328 328 329 329 331 333 333 334 337 339 342 341 334 325 319 315 313 317 323 323 320 320 317 311 308 309 315 322 326 327 324 318 312 309 310 312 312
170 176 180 177 173 173 173 175 181 176 160 149 155 160 156 176 220 273 327 323 306 315 329 337 336 333 331 326 322 322 324 323 325 327 330 332 330 328 331 333 331 332 334 335 336 338 340 342 341 336 327 321 317 315 319 321 317 315 315 311 304 304 308 315 324 333 337 334 329 322 316 314 315 315
171 174 170 165 163 161 161 164 170 167 149 135 137 147 151 172 194 167 17 321 295 312 336 342 338 339 341 339 334 333 332 332 332 330 329 331 333 335 336 333 329 330 335 337 337 338 340 341 341 339 333 326 324 326 329 325 318 314 315 312 306 305 310 321 332 341 344 343 341 338 333 335 339 342